Location: Asheville, NC
(35.6000°N, 82.5500°W)
Time: 23:57:59
(UTC-05:00)

STRAND 1 - Pass Details

Date: 04 January 2018
Orbit: 768 x 782 km, 98.5° (Epoch: 18 January)

Event Time Altitude Azimuth Distance (km) Brightness Sun altitude
Rises 06:12:24 0° 131° (SE) 3,229 ? -17.4°
Reaches altitude 10° 06:15:09 10° 116° (ESE) 2,304 ? -16.9°
Maximum altitude 06:18:59 22° 67° (ENE) 1,628 ? -16.1°
Drops below altitude 10° 06:22:49 10° 18° (NNE) 2,311 ? -15.4°
Sets 06:25:34 0° 3° (N) 3,241 ? -14.8°
